EB1HRW Weather Reports


time (UTC)temp
F
wind
direction
speed
knots
gust
knots
rain 1hr
in
rain 24hr
in
rain mn
in
humidity
%
barometer
mb
20260507073857 51 37 3.5 8.7 0.00 0.00 0.00 82 1010.0
20260507072358 50 54 4.3 10.4 0.00 0.00 0.00 84 1010.0
20260507070856 48 27 6.1 8.7 0.00 0.00 0.00 85 1010.1
20260507065357 47 19 5.2 10.4 0.00 0.00 0.00 85 1010.1
20260507063858 47 40 8.7 7.0 0.00 0.00 0.00 85 1010.1
20260507062356 47 17 3.5 7.8 0.00 0.00 0.00 85 1010.3
20260507060857 47 34 5.2 7.8 0.00 0.00 0.00 85 1010.0
20260507055358 47 48 6.1 3.5 0.00 0.00 0.00 85 1010.0
20260507053857 47 34 0.0 4.3 0.00 0.00 0.00 85 1010.0
20260507052357 47 33 0.9 7.0 0.00 0.00 0.00 85 1010.0
20260507050858 47 53 1.7 8.7 0.00 0.00 0.00 84 1009.9
20260507045357 47 55 3.5 5.2 0.00 0.00 0.00 84 1009.8
20260507043858 46 41 3.5 6.1 0.00 0.00 0.00 84 1010.0
20260507042356 47 51 3.5 5.2 0.00 0.00 0.00 85 1010.1
20260507040857 48 45 2.6 5.2 0.00 0.00 0.00 84 1010.1
20260507035358 49 37 0.0 7.0 0.00 0.00 0.00 83 1010.2
20260507033858 49 49 3.5 6.1 0.00 0.00 0.00 82 1010.0
20260507032357 50 31 4.3 3.5 0.00 0.00 0.00 82 1009.9
20260507030858 50 36 0.0 4.3 0.00 0.00 0.00 81 1010.0
20260507025356 50 39 2.6 4.3 0.00 0.00 0.00 81 1009.9
20260507023857 51 30 1.7 4.3 0.00 0.00 0.00 81 1009.9
20260507022358 51 32 1.7 8.7 0.00 0.00 0.00 80 1010.0
20260507020857 51 50 5.2 9.6 0.00 0.00 0.00 79 1010.1
20260507015357 52 34 5.2 7.0 0.00 0.00 0.00 78 1010.1
20260507013858 51 23 1.7 0.0 0.00 0.00 0.00 81 1010.2
20260507012357 51 309 0.0 7.8 0.00 0.00 0.00 82 1010.4
20260507010857 50 24 4.3 7.8 0.00 0.00 0.00 82 1010.4
20260507005358 50 36 4.3 7.8 0.00 0.00 0.00 82 1010.6
20260507003857 50 30 5.2 7.8 0.00 0.00 0.00 82 1010.7
20260507002357 51 37 6.1 7.0 0.00 0.00 0.00 81 1010.9
20260507000858 51 43 4.3 7.0 0.00 0.00 0.00 81 1011.0
20260506235357 51 34 3.5 5.2 0.00 0.00 0.00 80 1011.0
20260506233858 51 33 0.0 7.0 0.00 0.00 0.00 78 1011.1
20260506232356 51 32 6.1 7.0 0.00 0.00 0.00 77 1011.0
20260506230857 51 51 4.3 7.8 0.00 0.00 0.00 76 1011.1
20260506225358 52 34 7.8 6.1 0.00 0.00 0.00 73 1011.0
20260506223857 52 30 4.3 7.8 0.00 0.00 0.00 72 1011.2
20260506222357 52 37 4.3 7.8 0.00 0.00 0.00 73 1011.2
20260506220859 53 41 5.2 10.4 0.00 0.00 0.00 72 1011.1
20260506215358 53 30 7.0 0.0 0.00 0.00 0.00 72 1011.3
20260506213857 53 33 0.0 0.0 0.00 0.00 0.00 70 1011.2
20260506212357 53 33 0.0 0.0 0.00 0.00 0.00 68 1011.2
20260506210858 54 33 0.0 0.0 0.00 0.00 0.00 69 1011.4
20260506205357 55 32 0.0 0.0 0.00 0.00 0.00 69 1011.3
20260506203858 55 32 0.0 0.0 0.00 0.00 0.00 66 1011.2
20260506200858 56 34 0.0 0.0 0.00 0.00 0.00 58 1011.0
20260506195357 57 34 0.0 0.0 0.00 0.00 0.00 59 1010.9
20260506193857 58 34 0.0 0.0 0.00 0.00 0.00 57 1010.8
20260506192358 59 34 0.0 5.2 0.00 0.00 0.00 54 1010.6
20260506190857 60 25 0.0 0.0 0.00 0.00 0.00 51 1010.6
20260506183858 61 34 0.0 6.1 0.00 0.00 0.00 47 1010.7
20260506180858 62 49 0.0 7.0 0.00 0.00 0.00 47 1010.6
20260506175357 62 25 3.5 5.2 0.00 0.00 0.00 47 1010.6
20260506173857 62 32 0.0 5.2 0.00 0.00 0.00 47 1010.7
20260506172358 62 33 1.7 6.1 0.00 0.00 0.00 48 1010.8
20260506170858 63 19 1.7 0.0 0.00 0.00 0.00 44 1010.8
20260506162358 62 356 0.0 4.3 0.00 0.00 0.00 45 1011.3
20260506160857 62 20 0.0 2.6 0.00 0.00 0.00 45 1011.4
20260506155358 62 58 0.0 7.8 0.00 0.00 0.00 45 1011.5
20260506153857 62 39 5.2 7.8 0.00 0.00 0.00 46 1011.5
20260506152358 61 13 1.7 4.3 0.00 0.00 0.00 47 1011.6
20260506143901 61 34 5.2 7.8 0.00 0.00 0.00 46 1012.1
20260506140859 62 59 2.6 5.2 0.00 0.00 0.00 49 1012.4
20260506133858 61 42 4.3 4.3 0.00 0.00 0.00 46 1012.8
20260506132359 61 136 0.0 6.1 0.00 0.00 0.00 47 1013.0
20260506130900 61 59 3.5 4.3 0.00 0.00 0.00 49 1013.0
20260506125359 60 247 0.0 4.3 0.00 0.00 0.00 47 1013.2
20260506123859 61 295 0.0 4.3 0.00 0.00 0.00 49 1013.3
20260506122400 60 66 0.0 5.2 0.00 0.00 0.00 50 1013.5
20260506120859 59 274 0.0 5.2 0.00 0.00 0.00 50 1013.5
20260506115359 59 260 0.9 3.5 0.00 0.00 0.00 52 1013.7
20260506113858 57 227 2.6 5.2 0.00 0.00 0.00 54 1014.0
20260506112359 56 188 1.7 7.0 0.00 0.00 0.00 56 1014.1
20260506110859 56 321 3.5 7.0 0.00 0.00 0.00 57 1014.2
20260506105359 55 252 0.9 7.8 0.00 0.00 0.00 60 1014.2
20260506103859 55 54 4.3 8.7 0.00 0.00 0.00 59 1014.3
20260506102357 54 316 0.9 9.6 0.00 0.00 0.00 65 1014.2
20260506100858 53 37 6.1 8.7 0.00 0.00 0.00 60 1014.3
20260506095357 53 38 4.3 7.8 0.00 0.00 0.00 67 1014.3
20260506093857 52 353 3.5 7.8 0.00 0.00 0.00 75 1014.4
20260506092358 51 37 6.1 5.2 0.00 0.00 0.00 77 1014.5
20260506090857 50 27 5.2 5.2 0.00 0.00 0.00 82 1014.5
20260506085357 48 29 3.5 5.2 0.00 0.00 0.00 84 1014.4
20260506082357 47 51 1.7 3.5 0.00 0.00 0.00 85 1014.5
20260506080857 46 52 1.7 0.0 0.00 0.00 0.00 84 1014.5